Location: Bucquoy
(50.1391°N, 2.7097°E)
Time: 03:49:02
(UTC+00:00)

Aureole 2 - Pass Details

Date: 06 May 2021
Orbit: 365 x 890 km, 73.9° (Epoch: 22 June)

Event Time Altitude Azimuth Distance (km) Brightness Sun altitude
Rises 02:00:17 0° 333° (NNW) 2,235 8.4 -17.0°
Reaches altitude 10° 02:02:17 10° 330° (NNW) 1,371 7.2 -16.8°
Maximum altitude 02:05:11 63° 249° (WSW) 421 3.9 -16.6°
Enters shadow 02:05:37 54° 203° (SSW) 463 4.0 -16.5°
